Location: *
(50.9167°S, 179.4000°W)
Time: 21:57:14
(UTC+00:00)

Cosmos 2219 Rocket - Pass Details

Date: 03 March 2024
Orbit: 829 x 844 km, 71.0° (Epoch: 16 April)

Event Time Altitude Azimuth Distance (km) Brightness Sun altitude
Exits shadow 12:53:02 13° 250° (WSW) 2,279 4.5 -31.8°
Maximum altitude 12:56:06 19° 213° (SSW) 1,935 4.4 -31.7°
Drops below altitude 10° 13:00:07 10° 168° (SSE) 2,500 5.5 -31.5°
Sets 13:03:22 0° 150° (SSE) 3,442 6.4 -31.4°
